EST,Max TemperatureF,Mean TemperatureF,Min TemperatureF,Max Dew PointF,MeanDew PointF,Min DewpointF,Max Humidity, Mean Humidity, Min Humidity, Max Sea Level PressureIn, Mean Sea Level PressureIn, Min Sea Level PressureIn, Max VisibilityMiles, Mean VisibilityMiles, Min VisibilityMiles, Max Wind SpeedMPH, Mean Wind SpeedMPH, Max Gust SpeedMPH,PrecipitationIn, CloudCover, Events, WindDirDegrees
2012-11-1,77,68,59,66,60,54,100,75,50,30.08,30.03,29.98,10,10,5,12,4,17,0.00,3,,240
2012-11-2,80,66,53,59,47,37,82,46,24,30.14,30.08,30.05,10,8,0,10,2,,0.00,0,Fog,316
2012-11-3,84,70,55,66,60,52,100,62,33,30.17,30.12,30.08,10,8,1,7,1,,0.00,1,,320
2012-11-4,82,71,60,66,58,48,100,56,32,30.16,30.10,30.03,10,6,0,9,1,,0.00,3,Fog,264
2012-11-5,80,71,62,68,59,54,100,63,42,30.05,30.00,29.95,10,7,1,9,4,26,0.00,1,,296
2012-11-6,77,67,57,68,60,55,94,70,53,29.97,29.91,29.85,10,9,5,13,2,17,0.04,3,Rain,273
2012-11-7,68,60,51,57,49,43,100,69,43,30.05,29.96,29.89,10,10,10,15,5,24,0.00,3,Rain,322
2012-11-8,68,58,48,48,41,32,87,60,26,30.21,30.13,30.04,10,10,10,12,4,16,0.00,1,Rain,360
2012-11-9,75,60,44,48,43,36,100,56,24,30.29,30.23,30.20,10,10,7,9,3,,0.00,0,,46
2012-11-10,78,64,51,54,49,46,88,60,34,30.35,30.29,30.25,10,10,5,14,5,23,0.00,3,,61
2012-11-11,82,70,57,64,58,54,100,71,42,30.33,30.27,30.24,10,10,10,15,4,21,0.00,3,Rain,66
2012-11-12,84,72,60,66,63,57,100,62,40,30.27,30.22,30.17,10,9,5,10,3,,0.00,4,,84
2012-11-13,82,73,64,68,62,57,100,68,42,30.21,30.16,30.12,10,9,4,7,2,,0.00,1,,40
2012-11-14,78,70,62,68,65,63,100,74,57,30.22,30.16,30.12,10,8,0,9,4,,0.00,4,Fog,26
2012-11-15,68,64,60,64,62,61,100,84,78,30.19,30.14,30.10,10,8,2,7,4,,0.00,8,,20
2012-11-16,68,64,59,59,56,55,94,76,64,30.21,30.16,30.12,10,8,1,9,5,,0.00,5,,22
2012-11-17,78,69,60,63,60,57,100,74,47,30.19,30.15,30.10,10,8,5,16,7,21,0.00,5,,30
2012-11-18,73,65,55,63,58,55,100,78,57,30.22,30.18,30.14,10,10,7,13,8,20,0.00,4,,31
2012-11-19,62,56,51,59,55,54,100,80,77,30.21,30.16,30.11,10,8,3,10,4,16,0.00,5,,14
2012-11-20,75,66,57,61,55,54,100,68,47,30.12,30.07,30.01,10,10,7,12,5,41,0.00,2,,357
2012-11-21,75,64,53,55,48,41,88,56,29,30.13,30.08,30.02,10,9,2,13,3,18,0.00,0,,356
2012-11-22,73,60,46,52,37,28,100,48,20,30.22,30.15,30.11,10,10,10,17,4,25,0.00,0,,12
2012-11-23,73,56,39,46,37,30,93,58,20,30.26,30.18,30.12,10,10,10,10,2,,0.00,0,,341
2012-11-24,75,60,46,63,49,41,100,64,31,30.14,30.10,30.04,10,8,2,14,3,16,0.00,0,,301
2012-11-25,71,56,41,46,35,21,100,52,15,30.21,30.15,30.12,10,10,10,7,2,,0.00,0,,12
2012-11-26,80,60,41,59,49,39,100,67,36,30.26,30.19,30.15,10,10,5,9,2,,0.00,1,,128
2012-11-27,80,70,59,70,61,57,100,62,45,30.22,30.17,30.12,10,8,2,10,3,16,0.00,2,,171
2012-11-28,75,67,59,68,56,54,100,71,53,30.30,30.22,30.15,10,8,0,14,4,22,0.00,5,Fog,27
2012-11-29,80,66,51,57,54,52,100,63,37,30.31,30.27,30.22,10,9,4,14,8,20,0.00,1,,49
2012-11-30,80,68,55,61,54,52,100,60,37,30.29,30.24,30.19,10,10,7,15,5,22,0.00,2,,64